QPF
0.07 0.07 0.06 0.06 0.08 0.11 0.12 0.08 0.06 0.06 0.05 0.04 0.03 0.02 0.03 0.04 0.06 0.06 0.09 0.10 0.07 0.06 0.06 0.05 0.05 0.06 0.06 0.08 0.11 0.12 0.14 0.15 0.13 0.13 0.12 0.09 0.07 0.06 0.04 0.04 0.04 0.04 0.05
0.08 0.07 0.06 0.06 0.05 0.06 0.06 0.06 0.05 0.05 0.04 0.03 0.04 0.05 0.04 0.04 0.07 0.07 0.08 0.08 0.06 0.05 0.05 0.05 0.06 0.08 0.08 0.09 0.10 0.11 0.13 0.14 0.13 0.11 0.13 0.10 0.07 0.05 0.05 0.04 0.04 0.04 0.04
0.07 0.07 0.05 0.04 0.03 0.04 0.04 0.04 0.04 0.03 0.02 0.03 0.05 0.07 0.04 0.03 0.05 0.05 0.05 0.06 0.06 0.07 0.07 0.06 0.07 0.06 0.06 0.07 0.08 0.09 0.11 0.11 0.10 0.10 0.11 0.11 0.08 0.04 0.04 0.04 0.04 0.03 0.03
0.08 0.07 0.05 0.04 0.04 0.04 0.04 0.03 0.03 0.03 0.03 0.04 0.07 0.07 0.04 0.04 0.05 0.05 0.04 0.03 0.03 0.06 0.07 0.06 0.05 0.03 0.03 0.05 0.06 0.06 0.09 0.10 0.08 0.08 0.10 0.09 0.08 0.07 0.05 0.03 0.02 0.02 0.02
0.09 0.08 0.06 0.05 0.04 0.04 0.04 0.03 0.03 0.03 0.03 0.05 0.07 0.04 0.03 0.03 0.03 0.04 0.04 0.03 0.02 0.03 0.04 0.04 0.04 0.03 0.03 0.03 0.04 0.05 0.06 0.07 0.06 0.05 0.06 0.08 0.07 0.06 0.06 0.03 0.02 0.02 0.01
0.11 0.09 0.07 0.06 0.05 0.03 0.03 0.03 0.03 0.04 0.04 0.04 0.05 0.05 0.03 0.02 0.02 0.02 0.01 0.01 0.02 0.01 0.01 0.02 0.02 0.03 0.03 0.03 0.02 0.03 0.04 0.05 0.05 0.04 0.04 0.04 0.05 0.06 0.05 0.03 0.02 0.01 0.01
0.14 0.11 0.09 0.08 0.07 0.04 0.04 0.04 0.04 0.04 0.03 0.03 0.04 0.05 0.06 0.04 0.03 0.02 0.01 0.01 0.01 0.01 0.01 0.01 0.02 0.04 0.04 0.04 0.03 0.04 0.04 0.03 0.03 0.03 0.03 0.03 0.03 0.03 0.03 0.03 0.02 0.01 0.01
0.17 0.14 0.13 0.12 0.09 0.06 0.06 0.06 0.05 0.03 0.02 0.02 0.03 0.04 0.06 0.04 0.03 0.02 0.01 0.01 0.01 0.01 0.01 0.01 0.01 0.02 0.04 0.05 0.06 0.05 0.04 0.03 0.03 0.02 0.02 0.02 0.02 0.02 0.02 0.02 0.02 0.02 0.02
0.12 0.13 0.13 0.12 0.08 0.06 0.06 0.05 0.04 0.03 0.02 0.02 0.02 0.02 0.02 0.02 0.03 0.01 0.01 0.01 0.01 0.01 0.01 0.02 0.02 0.02 0.03 0.05 0.07 0.06 0.04 0.03 0.02 0.01 0.01 0.01 0.01 0.01 0.01 0.02 0.02 0.02 0.02
0.07 0.09 0.11 0.10 0.08 0.06 0.05 0.05 0.05 0.03 0.03 0.03 0.02 0.01 0.01 0.01 0.01 0.01 0.01 0.02 0.02 0.02 0.01 0.02 0.01 0.01 0.01 0.02 0.04 0.05 0.04 0.03 0.01 0.01 0.00 0.00 0.00 0.01 0.01 0.01 0.02 0.02 0.02
0.05 0.07 0.09 0.09 0.09 0.08 0.08 0.07 0.06 0.04 0.04 0.04 0.03 0.02 0.02 0.01 0.01 0.01 0.01 0.01 0.02 0.03 0.02 0.01 0.01 0.01 0.01 0.01 0.02 0.03 0.03 0.02 0.01 0.00 0.00 0.00 0.00 0.00 0.00 0.01 0.02 0.02 0.02
0.04 0.05 0.05 0.06 0.06 0.05 0.05 0.04 0.04 0.04 0.04 0.03 0.03 0.02 0.02 0.01 0.01 0.01 0.01 0.01 0.01 0.02 0.02 0.02 0.01 0.01 0.01 0.01 0.01 0.01 0.01 0.01 0.01 0.00 0.00 0.00 0.01 0.01 0.00 0.00 0.01 0.03 0.03
0.05 0.05 0.05 0.06 0.05 0.04 0.03 0.02 0.02 0.02 0.02 0.01 0.01 0.01 0.01 0.01 0.01 0.01 0.01 0.01 0.01 0.01 0.01 0.02 0.02 0.01 0.01 0.01 0.01 0.01 0.01 0.01 0.01 0.00 0.01 0.01 0.01 0.01 0.01 0.01 0.01 0.03 0.03
0.05 0.05 0.05 0.06 0.05 0.04 0.02 0.03 0.03 0.03 0.02 0.02 0.02 0.02 0.02 0.01 0.01 0.01 0.01 0.01 0.01 0.01 0.01 0.01 0.01 0.01 0.01 0.02 0.02 0.01 0.01 0.01 0.01 0.00 0.01 0.01 0.01 0.01 0.01 0.01 0.01 0.02 0.03
0.05 0.06 0.05 0.06 0.05 0.04 0.03 0.03 0.04 0.04 0.04 0.02 0.02 0.01 0.01 0.01 0.01 0.00 0.00 0.00 0.01 0.01 0.01 0.01 0.01 0.02 0.02 0.01 0.01 0.01 0.01 0.01 0.01 0.00 0.00 0.01 0.01 0.02 0.02 0.02 0.02 0.02 0.03
0.05 0.07 0.06 0.05 0.05 0.05 0.05 0.05 0.05 0.04 0.03 0.02 0.02 0.01 0.01 0.01 0.01 0.00 0.00 0.00 0.01 0.02 0.01 0.01 0.03 0.04 0.02 0.02 0.02 0.02 0.01 0.01 0.01 0.01 0.01 0.01 0.01 0.02 0.03 0.03 0.03 0.03 0.02
0.03 0.04 0.04 0.05 0.05 0.06 0.07 0.06 0.04 0.02 0.02 0.02 0.02 0.03 0.03 0.02 0.01 0.00 0.00 0.01 0.02 0.02 0.02 0.02 0.05 0.06 0.04 0.02 0.01 0.02 0.02 0.02 0.01 0.00 0.00 0.01 0.01 0.01 0.02 0.02 0.02 0.02 0.02
0.02 0.03 0.04 0.04 0.05 0.05 0.05 0.04 0.03 0.02 0.01 0.01 0.01 0.01 0.01 0.01 0.01 0.01 0.01 0.01 0.02 0.02 0.02 0.04 0.06 0.07 0.05 0.03 0.02 0.02 0.03 0.01 0.01 0.01 0.01 0.01 0.01 0.01 0.01 0.01 0.01 0.01 0.02
0.02 0.03 0.04 0.04 0.03 0.04 0.03 0.04 0.02 0.02 0.01 0.01 0.01 0.01 0.01 0.01 0.01 0.01 0.01 0.02 0.02 0.01 0.02 0.04 0.06 0.06 0.05 0.03 0.02 0.03 0.02 0.01 0.01 0.02 0.02 0.01 0.01 0.01 0.01 0.00 0.01 0.01 0.02
0.05 0.06 0.07 0.06 0.04 0.05 0.05 0.04 0.03 0.03 0.03 0.02 0.01 0.01 0.01 0.01 0.01 0.01 0.01 0.01 0.01 0.02 0.01 0.02 0.04 0.04 0.03 0.02 0.03 0.03 0.02 0.02 0.02 0.02 0.02 0.02 0.01 0.01 0.01 0.00 0.01 0.01 0.01
0.04 0.07 0.09 0.08 0.07 0.07 0.07 0.07 0.06 0.05 0.04 0.02 0.01 0.01 0.01 0.01 0.01 0.01 0.01 0.01 0.01 0.02 0.02 0.01 0.02 0.02 0.02 0.02 0.03 0.03 0.02 0.02 0.03 0.03 0.02 0.01 0.01 0.01 0.01 0.01 0.00 0.01 0.01
0.02 0.04 0.06 0.05 0.05 0.05 0.05 0.05 0.05 0.02 0.01 0.03 0.03 0.02 0.03 0.02 0.02 0.02 0.01 0.01 0.01 0.01 0.02 0.01 0.01 0.02 0.01 0.01 0.02 0.03 0.03 0.03 0.03 0.02 0.01 0.01 0.01 0.02 0.02 0.02 0.01 0.02 0.02
0.04 0.05 0.05 0.04 0.03 0.03 0.03 0.03 0.03 0.02 0.01 0.02 0.02 0.02 0.03 0.03 0.02 0.02 0.01 0.02 0.01 0.01 0.02 0.02 0.01 0.01 0.01 0.01 0.01 0.02 0.02 0.02 0.02 0.02 0.01 0.01 0.01 0.02 0.02 0.02 0.03 0.03 0.02
0.05 0.05 0.06 0.05 0.03 0.02 0.02 0.02 0.02 0.01 0.01 0.02 0.01 0.01 0.01 0.01 0.01 0.01 0.01 0.01 0.01 0.01 0.01 0.01 0.01 0.01 0.00 0.00 0.00 0.01 0.01 0.01 0.02 0.02 0.02 0.02 0.02 0.02 0.02 0.02 0.03 0.03 0.02
0.04 0.04 0.05 0.06 0.05 0.03 0.01 0.00 0.01 0.01 0.01 0.02 0.01 0.01 0.01 0.01 0.01 0.01 0.00 0.00 0.00 0.00 0.00 0.00 0.00 0.00 0.00 0.00 0.00 0.00 0.01 0.01 0.02 0.01 0.02 0.03 0.03 0.03 0.03 0.03 0.02 0.02 0.02
0.02 0.02 0.02 0.03 0.03 0.02 0.01 0.00 0.00 0.00 0.00 0.00 0.00 0.01 0.00 0.00 0.00 0.00 0.00 0.00 0.00 0.00 0.00 0.00 0.00 0.00 0.00 0.00 0.00 0.01 0.01 0.01 0.01 0.01 0.01 0.02 0.03 0.03 0.03 0.03 0.02 0.02 0.02
MSLP
1015.08 1015.36 1015.59 1015.75 1015.83 1015.85 1015.85 1015.85 1015.90 1016.02 1016.21 1016.46 1016.74 1017.02 1017.29 1017.52 1017.70 1017.85 1017.97 1018.08 1018.18 1018.25 1018.29 1018.26 1018.13 1017.89 1017.55 1017.12 1016.64 1016.16 1015.76 1015.47 1015.33 1015.35 1015.51 1015.77 1016.10 1016.42 1016.71 1016.94 1017.10 1017.22 1017.31
1014.97 1015.28 1015.55 1015.74 1015.84 1015.87 1015.85 1015.83 1015.86 1015.97 1016.15 1016.40 1016.70 1017.00 1017.29 1017.53 1017.73 1017.89 1018.03 1018.14 1018.25 1018.33 1018.36 1018.30 1018.13 1017.83 1017.40 1016.87 1016.28 1015.70 1015.20 1014.84 1014.67 1014.70 1014.90 1015.24 1015.66 1016.09 1016.48 1016.80 1017.02 1017.17 1017.26
1014.77 1015.13 1015.46 1015.71 1015.85 1015.91 1015.90 1015.89 1015.91 1016.00 1016.17 1016.41 1016.70 1017.01 1017.30 1017.56 1017.77 1017.95 1018.10 1018.24 1018.36 1018.44 1018.46 1018.39 1018.19 1017.83 1017.33 1016.72 1016.04 1015.38 1014.81 1014.40 1014.20 1014.23 1014.46 1014.86 1015.35 1015.87 1016.34 1016.72 1017.00 1017.17 1017.27
1014.54 1014.97 1015.37 1015.69 1015.91 1016.01 1016.04 1016.04 1016.05 1016.13 1016.28 1016.50 1016.78 1017.07 1017.36 1017.62 1017.85 1018.04 1018.21 1018.36 1018.49 1018.59 1018.61 1018.53 1018.31 1017.93 1017.39 1016.73 1016.00 1015.28 1014.66 1014.22 1014.00 1014.02 1014.26 1014.68 1015.21 1015.77 1016.29 1016.71 1017.02 1017.21 1017.30
1014.33 1014.82 1015.30 1015.71 1016.01 1016.18 1016.26 1016.28 1016.30 1016.36 1016.48 1016.67 1016.91 1017.18 1017.46 1017.71 1017.94 1018.15 1018.33 1018.50 1018.65 1018.75 1018.79 1018.71 1018.49 1018.11 1017.57 1016.90 1016.16 1015.44 1014.80 1014.34 1014.09 1014.09 1014.31 1014.72 1015.23 1015.79 1016.31 1016.74 1017.05 1017.24 1017.32
1014.14 1014.69 1015.25 1015.75 1016.14 1016.39 1016.52 1016.57 1016.60 1016.64 1016.73 1016.88 1017.09 1017.32 1017.57 1017.82 1018.04 1018.25 1018.45 1018.63 1018.80 1018.92 1018.97 1018.91 1018.71 1018.36 1017.85 1017.21 1016.51 1015.80 1015.18 1014.71 1014.45 1014.41 1014.59 1014.94 1015.40 1015.90 1016.38 1016.77 1017.06 1017.24 1017.32
1013.97 1014.56 1015.20 1015.78 1016.24 1016.57 1016.76 1016.84 1016.88 1016.92 1016.99 1017.10 1017.27 1017.47 1017.69 1017.92 1018.14 1018.35 1018.56 1018.75 1018.92 1019.06 1019.13 1019.10 1018.93 1018.63 1018.18 1017.61 1016.97 1016.32 1015.73 1015.28 1015.00 1014.92 1015.02 1015.29 1015.65 1016.07 1016.46 1016.80 1017.05 1017.20 1017.27
1013.80 1014.42 1015.10 1015.75 1016.28 1016.67 1016.91 1017.04 1017.10 1017.14 1017.19 1017.28 1017.42 1017.59 1017.79 1018.01 1018.22 1018.44 1018.65 1018.85 1019.03 1019.17 1019.26 1019.26 1019.14 1018.89 1018.51 1018.03 1017.47 1016.90 1016.37 1015.94 1015.65 1015.52 1015.54 1015.70 1015.96 1016.26 1016.55 1016.81 1017.01 1017.14 1017.21
1013.62 1014.25 1014.96 1015.64 1016.22 1016.67 1016.96 1017.14 1017.23 1017.28 1017.33 1017.41 1017.53 1017.69 1017.88 1018.08 1018.30 1018.52 1018.73 1018.93 1019.12 1019.27 1019.37 1019.38 1019.31 1019.11 1018.81 1018.41 1017.95 1017.46 1017.00 1016.60 1016.31 1016.14 1016.09 1016.14 1016.28 1016.46 1016.65 1016.83 1016.97 1017.08 1017.14
1013.47 1014.09 1014.80 1015.49 1016.10 1016.58 1016.92 1017.13 1017.26 1017.34 1017.41 1017.50 1017.62 1017.77 1017.96 1018.17 1018.39 1018.61 1018.83 1019.03 1019.22 1019.37 1019.47 1019.50 1019.44 1019.30 1019.06 1018.74 1018.36 1017.96 1017.56 1017.21 1016.92 1016.72 1016.61 1016.58 1016.61 1016.68 1016.78 1016.88 1016.97 1017.05 1017.12
1013.41 1014.00 1014.67 1015.35 1015.95 1016.45 1016.82 1017.08 1017.24 1017.36 1017.46 1017.57 1017.70 1017.87 1018.07 1018.29 1018.52 1018.75 1018.97 1019.18 1019.36 1019.50 1019.59 1019.62 1019.58 1019.46 1019.27 1019.01 1018.70 1018.37 1018.03 1017.72 1017.46 1017.25 1017.09 1017.00 1016.95 1016.94 1016.96 1016.99 1017.04 1017.10 1017.17
1013.52 1014.05 1014.67 1015.30 1015.88 1016.37 1016.75 1017.04 1017.24 1017.39 1017.52 1017.66 1017.82 1018.01 1018.22 1018.45 1018.69 1018.94 1019.17 1019.37 1019.55 1019.68 1019.76 1019.78 1019.73 1019.62 1019.45 1019.23 1018.97 1018.69 1018.42 1018.15 1017.91 1017.70 1017.53 1017.40 1017.29 1017.22 1017.18 1017.16 1017.17 1017.21 1017.27
1013.83 1014.31 1014.85 1015.41 1015.94 1016.40 1016.78 1017.07 1017.30 1017.48 1017.64 1017.80 1017.98 1018.18 1018.41 1018.66 1018.92 1019.17 1019.41 1019.62 1019.79 1019.91 1019.97 1019.97 1019.91 1019.79 1019.62 1019.42 1019.19 1018.96 1018.72 1018.49 1018.28 1018.09 1017.91 1017.76 1017.62 1017.51 1017.42 1017.36 1017.33 1017.34 1017.37
1014.39 1014.79 1015.24 1015.72 1016.17 1016.58 1016.93 1017.22 1017.45 1017.64 1017.82 1018.00 1018.19 1018.40 1018.64 1018.90 1019.17 1019.43 1019.68 1019.90 1020.07 1020.18 1020.22 1020.20 1020.12 1019.98 1019.80 1019.60 1019.38 1019.16 1018.95 1018.75 1018.56 1018.38 1018.21 1018.04 1017.89 1017.74 1017.61 1017.51 1017.44 1017.41 1017.42
1015.13 1015.45 1015.81 1016.19 1016.56 1016.90 1017.20 1017.46 1017.68 1017.87 1018.05 1018.23 1018.42 1018.63 1018.86 1019.12 1019.40 1019.68 1019.94 1020.16 1020.33 1020.44 1020.48 1020.43 1020.33 1020.17 1019.97 1019.75 1019.53 1019.31 1019.10 1018.92 1018.74 1018.56 1018.38 1018.20 1018.02 1017.84 1017.67 1017.52 1017.41 1017.34 1017.32
1015.98 1016.22 1016.49 1016.77 1017.04 1017.30 1017.55 1017.77 1017.96 1018.14 1018.30 1018.47 1018.64 1018.84 1019.07 1019.32 1019.59 1019.87 1020.14 1020.37 1020.55 1020.66 1020.69 1020.63 1020.51 1020.33 1020.11 1019.87 1019.62 1019.39 1019.18 1018.98 1018.79 1018.60 1018.40 1018.19 1017.97 1017.74 1017.52 1017.32 1017.16 1017.06 1017.01
1016.81 1016.99 1017.17 1017.35 1017.54 1017.73 1017.91 1018.09 1018.25 1018.40 1018.55 1018.69 1018.84 1019.02 1019.23 1019.47 1019.73 1020.00 1020.27 1020.51 1020.69 1020.80 1020.83 1020.77 1020.64 1020.44 1020.20 1019.93 1019.67 1019.41 1019.17 1018.94 1018.71 1018.49 1018.24 1017.98 1017.70 1017.42 1017.14 1016.88 1016.68 1016.54 1016.47
1017.53 1017.65 1017.75 1017.86 1017.97 1018.10 1018.24 1018.38 1018.51 1018.64 1018.76 1018.89 1019.02 1019.18 1019.36 1019.57 1019.82 1020.08 1020.34 1020.57 1020.75 1020.86 1020.89 1020.83 1020.69 1020.48 1020.23 1019.95 1019.66 1019.37 1019.09 1018.81 1018.54 1018.25 1017.94 1017.60 1017.25 1016.89 1016.54 1016.23 1015.98 1015.81 1015.74
1018.06 1018.14 1018.19 1018.24 1018.31 1018.39 1018.50 1018.62 1018.74 1018.86 1018.97 1019.08 1019.20 1019.33 1019.49 1019.68 1019.89 1020.13 1020.37 1020.58 1020.75 1020.86 1020.88 1020.82 1020.68 1020.48 1020.22 1019.93 1019.62 1019.30 1018.98 1018.65 1018.31 1017.94 1017.55 1017.13 1016.68 1016.24 1015.82 1015.45 1015.17 1014.99 1014.93
1018.40 1018.45 1018.47 1018.50 1018.54 1018.62 1018.71 1018.83 1018.96 1019.08 1019.19 1019.30 1019.41 1019.52 1019.65 1019.81 1019.99 1020.19 1020.39 1020.58 1020.73 1020.81 1020.83 1020.77 1020.64 1020.44 1020.19 1019.90 1019.58 1019.24 1018.89 1018.51 1018.10 1017.65 1017.17 1016.66 1016.13 1015.60 1015.11 1014.70 1014.39 1014.20 1014.17
1018.59 1018.64 1018.66 1018.68 1018.73 1018.81 1018.93 1019.06 1019.21 1019.34 1019.47 1019.58 1019.68 1019.79 1019.89 1020.02 1020.15 1020.31 1020.46 1020.60 1020.71 1020.77 1020.77 1020.71 1020.58 1020.39 1020.16 1019.88 1019.57 1019.23 1018.85 1018.44 1017.97 1017.46 1016.90 1016.30 1015.69 1015.09 1014.55 1014.10 1013.77 1013.60 1013.59
1018.72 1018.77 1018.81 1018.86 1018.93 1019.04 1019.19 1019.35 1019.52 1019.68 1019.83 1019.95 1020.05 1020.14 1020.22 1020.30 1020.39 1020.48 1020.57 1020.65 1020.71 1020.73 1020.71 1020.64 1020.52 1020.35 1020.14 1019.90 1019.61 1019.28 1018.90 1018.46 1017.96 1017.40 1016.78 1016.12 1015.45 1014.81 1014.23 1013.76 1013.43 1013.27 1013.29
1018.85 1018.93 1019.00 1019.09 1019.20 1019.35 1019.53 1019.72 1019.92 1020.10 1020.26 1020.39 1020.48 1020.55 1020.60 1020.64 1020.67 1020.70 1020.73 1020.74 1020.74 1020.71 1020.66 1020.57 1020.46 1020.31 1020.14 1019.92 1019.67 1019.37 1019.01 1018.58 1018.07 1017.49 1016.84 1016.15 1015.45 1014.79 1014.19 1013.72 1013.40 1013.27 1013.31
1019.04 1019.16 1019.27 1019.40 1019.55 1019.74 1019.94 1020.16 1020.37 1020.57 1020.73 1020.86 1020.94 1020.99 1021.00 1020.99 1020.97 1020.93 1020.88 1020.82 1020.75 1020.67 1020.58 1020.48 1020.37 1020.25 1020.10 1019.93 1019.72 1019.47 1019.14 1018.73 1018.24 1017.67 1017.03 1016.34 1015.65 1014.99 1014.42 1013.97 1013.67 1013.56 1013.63
1019.28 1019.45 1019.60 1019.77 1019.96 1020.17 1020.39 1020.62 1020.83 1021.02 1021.18 1021.28 1021.35 1021.37 1021.35 1021.29 1021.21 1021.10 1020.98 1020.86 1020.73 1020.59 1020.46 1020.34 1020.23 1020.11 1020.00 1019.87 1019.70 1019.49 1019.21 1018.85 1018.40 1017.87 1017.27 1016.62 1015.97 1015.35 1014.82 1014.41 1014.15 1014.06 1014.15
1019.54 1019.75 1019.95 1020.15 1020.37 1020.59 1020.81 1021.03 1021.22 1021.39 1021.52 1021.60 1021.64 1021.62 1021.56 1021.47 1021.33 1021.18 1021.00 1020.81 1020.62 1020.44 1020.27 1020.12 1020.00 1019.89 1019.79 1019.69 1019.56 1019.40 1019.17 1018.86 1018.47 1018.00 1017.46 1016.88 1016.30 1015.75 1015.28 1014.93 1014.72 1014.67 1014.77
Thickness
5712 5712 5711 5710 5707 5704 5702 5699 5697 5694 5691 5687 5685 5681 5678 5676 5674 5673 5671 5670 5669 5668 5667 5666 5666 5666 5665 5664 5663 5663 5662 5662 5662 5661 5660 5660 5662 5662 5663 5664 5665 5665 5666
5706 5705 5704 5703 5700 5697 5695 5693 5691 5687 5686 5683 5679 5676 5672 5669 5667 5665 5664 5662 5661 5661 5660 5659 5658 5658 5657 5657 5656 5656 5655 5655 5655 5655 5653 5652 5653 5654 5654 5655 5656 5656 5657
5702 5700 5698 5695 5692 5689 5687 5685 5682 5681 5679 5677 5673 5669 5666 5662 5659 5656 5655 5654 5653 5652 5652 5651 5650 5650 5649 5648 5648 5649 5648 5647 5648 5649 5649 5647 5646 5645 5645 5646 5647 5647 5649
5700 5696 5692 5689 5686 5683 5681 5678 5676 5673 5672 5669 5666 5663 5658 5654 5651 5648 5646 5646 5645 5644 5644 5642 5642 5641 5641 5641 5641 5641 5641 5641 5640 5641 5642 5643 5643 5640 5637 5636 5638 5639 5640
5696 5691 5688 5685 5682 5678 5675 5672 5669 5666 5664 5661 5658 5655 5651 5647 5644 5642 5640 5638 5637 5637 5636 5635 5634 5633 5633 5633 5633 5633 5632 5633 5633 5633 5634 5634 5634 5635 5633 5630 5630 5631 5632
5692 5687 5683 5680 5676 5673 5669 5665 5662 5659 5657 5654 5652 5648 5644 5641 5638 5634 5632 5630 5629 5629 5628 5627 5626 5626 5625 5625 5625 5625 5625 5625 5625 5625 5626 5626 5627 5627 5627 5625 5624 5623 5624
5687 5682 5677 5673 5669 5666 5662 5658 5655 5652 5650 5648 5645 5641 5637 5634 5630 5627 5624 5622 5620 5620 5619 5619 5618 5618 5617 5617 5618 5617 5617 5617 5617 5618 5618 5618 5619 5620 5620 5620 5618 5617 5616
5682 5677 5672 5668 5663 5659 5656 5652 5648 5644 5642 5639 5636 5633 5629 5626 5623 5620 5617 5615 5613 5612 5612 5611 5611 5610 5610 5610 5611 5610 5609 5609 5609 5610 5610 5610 5611 5613 5614 5614 5613 5611 5610
5676 5671 5666 5662 5657 5653 5649 5645 5641 5637 5634 5631 5627 5624 5621 5618 5615 5612 5610 5608 5606 5605 5605 5604 5603 5603 5602 5602 5603 5602 5602 5602 5602 5602 5602 5602 5603 5605 5606 5607 5608 5608 5606
5668 5663 5658 5654 5650 5646 5642 5637 5632 5628 5625 5622 5619 5616 5613 5610 5607 5604 5602 5600 5599 5598 5597 5596 5596 5595 5595 5594 5595 5595 5595 5595 5595 5595 5595 5595 5596 5597 5599 5599 5600 5602 5602
5661 5656 5651 5648 5644 5639 5635 5630 5625 5621 5617 5614 5610 5607 5604 5601 5599 5596 5593 5592 5591 5590 5589 5588 5588 5588 5587 5587 5587 5587 5587 5587 5587 5588 5588 5588 5589 5590 5591 5592 5593 5594 5595
5655 5650 5646 5642 5637 5632 5628 5623 5618 5614 5610 5606 5603 5599 5596 5593 5590 5587 5585 5583 5582 5582 5581 5580 5580 5580 5580 5579 5579 5579 5579 5579 5580 5580 5581 5582 5584 5584 5584 5585 5587 5588 5588
5648 5644 5639 5635 5631 5626 5622 5616 5611 5607 5603 5599 5595 5590 5587 5585 5582 5579 5576 5575 5575 5574 5573 5573 5573 5572 5572 5572 5572 5572 5572 5572 5573 5574 5574 5575 5577 5577 5578 5579 5580 5581 5582
5642 5638 5633 5628 5625 5620 5616 5610 5605 5600 5596 5592 5588 5583 5580 5577 5574 5571 5569 5568 5567 5567 5566 5566 5566 5566 5566 5566 5566 5566 5566 5566 5567 5568 5568 5569 5570 5571 5572 5573 5574 5575 5575
5636 5632 5628 5623 5618 5613 5609 5603 5598 5593 5589 5585 5581 5577 5573 5570 5567 5564 5562 5561 5560 5559 5559 5559 5559 5560 5560 5560 5560 5560 5561 5561 5561 5562 5563 5564 5565 5565 5566 5568 5569 5570 5571
5632 5628 5623 5619 5613 5608 5604 5598 5593 5588 5583 5579 5575 5571 5567 5563 5560 5558 5556 5554 5553 5553 5553 5552 5553 5553 5554 5554 5555 5555 5555 5555 5556 5556 5557 5559 5559 5560 5561 5563 5564 5566 5567
5628 5623 5619 5615 5610 5604 5600 5594 5589 5584 5579 5574 5570 5565 5561 5558 5555 5553 5551 5549 5548 5547 5547 5547 5548 5548 5549 5550 5550 5551 5551 5551 5551 5552 5553 5555 5555 5555 5557 5558 5560 5561 5562
5624 5619 5614 5610 5605 5600 5595 5590 5584 5579 5574 5570 5565 5561 5557 5554 5551 5548 5546 5545 5543 5543 5543 5543 5543 5544 5545 5546 5547 5547 5548 5547 5548 5548 5549 5549 5550 5551 5552 5554 5555 5556 5558
5621 5616 5611 5607 5601 5596 5591 5586 5580 5575 5570 5566 5561 5558 5554 5551 5548 5545 5543 5542 5541 5540 5540 5540 5540 5542 5542 5543 5544 5544 5545 5545 5545 5546 5546 5547 5547 5548 5549 5550 5551 5553 5554
5617 5612 5608 5604 5599 5594 5589 5583 5576 5571 5567 5563 5558 5555 5551 5549 5546 5543 5541 5539 5538 5538 5538 5538 5538 5539 5539 5541 5542 5542 5543 5543 5543 5544 5544 5545 5545 5546 5546 5547 5548 5550 5551
5614 5609 5605 5600 5596 5591 5586 5580 5574 5569 5565 5560 5556 5552 5549 5546 5544 5541 5539 5538 5537 5536 5536 5536 5536 5537 5538 5539 5540 5541 5541 5541 5541 5542 5543 5543 5544 5544 5545 5546 5547 5548 5549
5610 5606 5601 5597 5592 5588 5583 5577 5572 5568 5563 5559 5554 5550 5547 5545 5543 5541 5539 5537 5536 5535 5535 5535 5535 5536 5537 5538 5539 5540 5541 5540 5540 5541 5541 5542 5543 5544 5544 5545 5547 5548 5548
5608 5604 5599 5594 5589 5585 5581 5576 5571 5567 5562 5557 5553 5549 5546 5544 5543 5541 5539 5537 5536 5535 5535 5535 5535 5536 5537 5538 5539 5540 5541 5541 5540 5541 5541 5542 5543 5544 5545 5546 5546 5547 5548
5606 5601 5597 5593 5588 5584 5580 5576 5571 5566 5562 5557 5553 5550 5547 5544 5543 5541 5540 5538 5537 5536 5536 5536 5536 5536 5537 5539 5540 5540 5541 5542 5542 5542 5542 5543 5544 5544 5545 5546 5547 5548 5548
5604 5600 5596 5592 5588 5584 5580 5576 5572 5567 5562 5558 5554 5551 5548 5546 5543 5542 5541 5540 5539 5538 5537 5537 5537 5537 5539 5541 5540 5540 5542 5542 5542 5542 5543 5544 5545 5546 5547 5548 5549 5549 5550
5603 5599 5595 5592 5588 5584 5580 5577 5573 5568 5564 5559 5555 5552 5549 5547 5545 5543 5543 5543 5542 5542 5542 5541 5540 5540 5541 5542 5543 5543 5543 5544 5543 5542 5544 5545 5546 5547 5548 5549 5550 5552 5552